Location: Newark
(44.1667°N, 8.2500°E)
Time: 18:04:19
(UTC+00:00)

S-56A Canister/Altair - Pass Details

Date: 16 December 2019
Orbit: 634 x 2498 km, 38.9° (Epoch: 26 January)

Event Time Altitude Azimuth Distance (km) Brightness Sun altitude
Rises 12:49:13 0° 281° (W) 6,047 12.2 19.7°
Reaches altitude 10° 12:53:12 10° 277° (W) 5,122 12.0 19.4°
Maximum altitude 13:07:30 52° 208° (SSW) 2,843 11.5 18.4°
Drops below altitude 10° 13:19:55 10° 137° (SE) 4,484 11.7 17.4°
Sets 13:23:10 0° 133° (SE) 5,268 12.0 17.1°
